Tracking 18957 objects as of 22-Jan-2018
HD Live streaming from Space Station
objects crossing your sky now

BREEZE-M DEB

Track BREEZE-M DEB now!
10-day predictions


NORAD ID: 34254
Int'l Code: 2006-006BV
Perigee: 418.5 km
Apogee: 12,064.2 km
Inclination: 51.6 °
Period: 234.9 minutes
Semi major axis: 12612 km
RCS: 0.033 m2 (small)
Launch date: February 28, 2006
Source: Commonwealth of Independent States (former USSR) (CIS)
Launch site: TYURATAM MISSILE AND SPACE COMPLEX (TTMTR)

Note: This is SATELLITE DEBRIS
aabbcc
Your satellite tracking list
Your tracking list is empty




NASA's NSSDC Master Catalog

Two Line Element Set (TLE):
1 34254U 06006BV  18015.78339834 +.00005758 +00000-0 +32199-2 0  9991
2 34254 051.6084 243.6547 4616807 069.0998 333.5189 06.12930026199233
Source of the keplerian elements: AFSPC